SCP
0 0 0 0 0 0 0 0 0 0 0 0 0 0 0 0 0 0 0 0 0 0 0 0 0 0 0 0 0 0 0 0 0 0 0 0 0 0 0 0 0 0 0 1
0 0 0 0 0 0 0 0 0 0 0 0 0 0 0 0 0 0 0 0 0 0 0 0 0 0 0 0 0 0 0 0 0 0 0 0 0 0 0 0 0 0 0 0
0 0 0 0 0 0 0 0 0 0 0 0 0 0 0 0 0 0 0 0 0 0 0 0 0 0 0 0 0 0 0 0 0 0 0 0 0 0 0 0 0 0 0 0
0 0 0 0 0 0 0 0 0 0 0 0 0 0 0 0 0 0 0 0 0 0 0 0 0 0 0 0 0 0 0 0 0 0 0 0 0 0 0 0 0 0 0 0
0 0 0 0 0 0 0 0 0 0 0 0 0 0 0 0 0 0 0 0 0 0 0 0 0 0 0 0 0 0 0 0 0 0 0 0 0 0 0 0 0 0 0 0
0 0 0 0 0 0 0 0 0 0 0 0 0 0 0 0 0 0 0 0 0 0 0 0 0 0 0 0 0 0 0 0 0 0 0 0 0 0 0 0 0 0 0 0
0 0 0 0 0 0 0 0 0 0 0 0 0 0 0 0 0 0 0 0 0 0 0 0 0 0 0 0 0 0 0 0 0 0 0 0 0 0 0 0 0 0 0 0
0 0 0 0 0 0 0 0 0 0 0 0 0 0 0 0 0 0 0 0 0 0 0 0 0 0 0 0 0 0 0 0 0 0 0 0 0 0 0 0 0 0 0 0
0 0 0 0 0 0 0 0 0 0 0 0 0 0 0 0 0 0 0 0 0 0 0 0 0 0 0 0 0 0 0 0 0 0 0 0 0 0 0 0 0 0 0 0
0 0 0 0 0 0 0 0 0 0 0 0 0 0 0 0 0 0 0 0 0 0 0 0 0 0 0 0 0 0 0 0 0 0 0 0 0 0 0 0 0 0 0 0
0 0 0 0 0 0 0 0 0 0 0 0 0 0 0 0 0 0 0 0 0 0 0 0 0 0 0 0 0 0 0 0 0 0 0 0 0 0 0 0 0 0 0 0
0 0 0 0 0 0 0 0 0 0 0 0 0 0 0 0 0 0 0 0 0 0 0 0 0 0 0 0 0 0 0 0 0 0 0 0 0 0 0 0 0 0 0 0
0 0 0 0 0 0 0 0 0 0 0 0 0 0 0 0 0 0 0 0 0 0 0 0 0 0 0 0 0 0 0 0 0 0 0 0 0 0 0 0 0 0 0 0
0 0 0 0 0 0 0 0 0 0 0 0 0 0 0 0 0 0 0 0 0 0 0 0 0 0 0 0 0 0 0 0 0 0 0 0 0 0 0 0 0 0 0 0
0 0 0 0 0 0 0 0 0 0 0 0 0 0 0 0 0 0 0 0 0 0 0 0 0 0 0 0 0 0 0 0 0 0 0 0 0 0 0 0 0 0 0 0
0 0 0 0 0 0 0 0 0 0 0 0 0 0 0 0 0 0 0 0 0 0 0 0 0 0 0 0 0 0 0 0 0 0 0 0 0 0 0 0 0 0 0 0
0 0 0 0 0 0 0 0 0 0 0 0 0 0 0 0 0 0 0 0 0 0 0 0 0 0 0 0 0 0 0 0 0 0 0 0 0 0 0 0 0 0 0 0
0 0 0 0 0 0 0 0 0 0 0 0 0 0 0 0 0 0 0 0 0 0 0 0 0 0 0 0 0 0 0 0 0 0 0 0 0 0 0 0 0 0 0 0
0 0 0 0 0 0 0 0 0 0 0 0 0 0 0 0 0 0 0 0 0 0 0 0 0 0 0 0 0 0 0 0 0 0 0 0 0 0 0 0 0 0 0 0
0 0 0 0 0 0 0 0 0 0 0 0 0 0 0 0 0 0 0 0 0 0 0 0 0 0 0 0 0 0 0 0 0 0 0 0 0 0 0 0 0 0 0 0
0 0 0 0 0 0 0 0 0 0 0 0 0 0 0 0 0 0 0 0 0 0 0 0 0 0 0 0 0 0 0 0 0 0 0 0 0 0 0 0 0 0 0 0
0 0 0 0 0 0 0 0 0 0 0 0 0 0 0 0 0 0 0 0 0 0 0 0 0 0 0 0 0 0 0 0 0 0 0 0 0 0 0 0 0 0 0 0
0 0 0 0 0 0 0 0 0 0 0 0 0 0 0 0 0 0 0 0 0 0 0 0 0 0 0 0 0 0 0 0 0 0 0 0 0 0 0 0 0 0 0 0
0 0 0 0 0 0 0 0 0 0 0 0 0 0 0 0 0 0 0 0 0 0 0 0 0 0 0 0 0 0 0 0 0 0 0 0 0 0 0 0 0 0 0 0
0 0 0 0 0 0 0 0 0 0 0 0 0 0 0 0 0 0 0 0 0 0 0 0 0 0 0 0 0 0 0 0 0 0 0 0 0 0 0 0 0 0 0 0
0 0 0 0 0 0 0 0 0 0 0 0 0 0 0 0 0 0 0 0 0 0 0 0 0 0 0 0 0 0 0 0 0 0 0 0 0 0 0 0 0 0 0 0
Wind_Speed
1 3 5 7 8 7 5 7 8 7 3 5 10 13 10 7 7 8 7 6 6 5 3 2 1 1 1 1 0 0 0 0 1 1 2 1 1 1 1 1 2 1 1 1
3 6 6 4 5 6 7 9 10 7 3 6 9 13 10 9 9 9 9 7 6 5 3 1 1 1 1 0 0 0 0 1 1 1 1 2 2 1 1 1 1 2 2 1
7 2 3 5 6 7 9 10 10 8 6 5 8 11 9 7 6 6 7 7 5 4 4 2 1 1 0 0 1 0 0 0 0 1 2 2 2 1 1 1 1 2 2 1
5 4 3 5 7 7 8 7 8 8 7 5 4 8 8 6 6 6 6 6 4 3 2 2 2 1 1 1 1 0 0 1 1 1 2 3 2 2 1 0 0 1 1 1
4 3 4 7 6 7 5 2 5 6 7 7 6 8 7 4 8 7 5 5 4 2 2 2 1 1 1 1 0 0 1 1 1 1 2 2 2 1 1 1 1 1 1 1
5 3 4 5 3 5 2 1 2 3 5 9 9 9 9 5 7 6 4 3 3 1 1 1 1 1 1 0 0 0 1 1 1 1 2 2 2 2 1 1 1 1 1 1
5 5 3 3 3 4 4 3 3 4 6 8 4 9 10 3 4 5 5 4 2 2 2 1 1 1 0 1 1 0 1 2 1 1 2 1 1 2 2 1 1 0 0 1
5 6 5 4 6 6 7 7 6 6 6 5 5 10 6 2 2 3 3 3 3 2 2 2 2 1 1 1 1 0 1 1 1 1 1 1 1 1 0 0 1 1 1 1
6 5 1 3 3 6 7 7 4 3 2 6 8 7 6 3 2 2 2 2 3 3 2 2 2 2 1 1 1 1 1 1 1 1 1 1 1 0 0 0 0 0 1 1
5 6 3 2 2 4 5 5 4 6 6 9 8 9 7 5 4 3 3 3 3 2 2 2 2 2 1 1 1 1 1 1 1 1 1 1 0 0 0 0 0 1 1 1
4 5 3 4 8 8 7 7 6 5 5 6 8 7 2 4 4 4 4 4 3 2 2 1 1 1 1 1 2 2 2 1 1 1 1 1 1 0 0 0 1 1 1 1
5 4 6 7 4 4 7 10 10 8 7 7 8 8 2 2 2 3 4 3 2 1 1 1 1 1 1 2 2 1 1 1 1 1 1 0 0 1 0 1 1 1 1 1
6 5 4 4 3 4 6 7 9 8 6 8 10 9 3 1 1 2 3 3 2 2 2 2 2 2 2 2 2 1 1 1 0 0 0 0 0 0 1 1 1 1 1 2
5 6 8 11 7 5 7 9 9 9 9 11 15 16 9 6 4 4 3 3 2 3 3 3 3 3 2 2 2 2 1 1 1 1 1 0 0 1 1 2 2 2 2 2
5 7 9 11 10 8 10 12 13 14 14 13 15 16 15 10 7 6 4 3 3 3 3 4 3 3 3 3 3 3 2 2 1 1 1 1 1 1 1 1 2 2 2 3
6 6 5 9 9 8 12 16 17 17 16 18 18 20 12 8 6 6 6 5 5 5 5 5 4 4 4 4 4 3 3 2 2 2 2 1 1 1 1 2 2 2 3 3
6 6 6 8 5 5 13 15 16 14 14 14 18 17 8 8 8 8 7 7 7 6 6 5 5 5 5 5 5 4 4 3 3 2 2 1 1 1 2 2 2 2 3 3
7 7 5 5 4 13 9 4 10 13 14 14 14 12 10 9 8 7 7 7 7 6 6 5 5 5 5 4 4 3 3 3 3 3 2 2 2 2 2 2 3 3 3 3
8 8 5 5 9 12 10 5 5 8 12 10 12 11 9 5 5 7 5 5 5 5 5 4 4 4 3 4 3 3 3 3 3 3 3 3 2 3 3 3 3 3 3 3
5 7 6 6 8 11 6 1 2 4 9 4 7 8 6 4 6 5 2 4 4 3 3 3 2 2 2 3 3 4 4 4 4 4 4 3 3 4 4 4 4 3 3 4
6 7 10 11 11 11 4 1 3 6 6 1 4 5 5 6 6 4 3 3 3 3 2 1 2 2 2 2 3 4 4 5 4 3 3 3 3 4 4 3 3 3 3 3
9 8 9 7 10 11 3 5 7 4 2 1 3 4 4 5 5 4 4 3 3 2 1 1 2 2 2 2 3 4 4 3 2 2 3 3 3 3 3 3 3 3 3 3
9 8 6 9 8 1 5 5 3 1 2 3 3 3 3 4 5 5 4 3 3 2 2 2 2 2 1 2 3 4 3 2 2 2 3 3 3 3 3 3 3 3 3 3
5 2 4 6 8 5 4 4 3 2 3 3 3 3 3 4 5 4 4 3 3 2 2 1 2 2 2 2 3 3 2 1 2 3 3 3 3 3 3 3 3 3 4 4
6 5 5 7 7 5 6 6 5 3 3 3 3 3 4 4 4 4 4 3 3 2 2 2 3 3 3 2 3 2 2 2 3 3 3 3 4 3 3 4 4 5 5 5
7 8 8 9 7 6 6 2 3 3 4 4 4 4 4 4 5 4 4 3 3 3 2 2 3 3 3 3 3 3 3 3 4 4 4 3 3 3 3 3 4 6 6 7
Wind_Direction
146 203 219 221 223 245 249 247 263 273 287 268 259 264 266 258 249 250 251 254 257 261 275 300 325 332 3 26 33 65 102 116 142 163 164 153 139 109 75 51 48 55 62 112
182 229 239 239 226 232 242 252 264 278 286 273 274 271 263 251 245 246 250 252 253 256 261 283 326 357 8 349 359 8 148 163 170 169 163 173 172 152 112 80 56 46 49 62
218 237 225 216 224 231 243 245 256 269 296 263 276 266 244 236 238 247 247 249 249 241 245 249 252 258 271 317 304 315 57 100 133 139 143 133 133 121 92 54 41 33 44 54
241 246 223 224 234 232 250 242 251 260 265 262 259 273 248 230 240 240 241 242 243 240 232 229 236 250 258 279 278 252 121 107 94 112 134 148 155 155 179 220 124 62 58 58
234 224 220 232 237 225 246 267 248 248 248 259 235 257 265 219 244 243 234 231 235 237 224 218 231 245 251 261 244 191 127 107 99 113 128 150 150 151 146 108 88 65 62 55
259 243 241 243 254 217 199 213 219 212 228 248 231 236 265 229 238 240 229 223 219 221 226 230 229 207 173 108 113 152 145 113 105 121 130 140 150 146 134 103 80 32 22 35
255 239 232 219 210 197 208 216 234 228 227 243 198 231 254 257 251 248 241 229 225 219 210 196 160 143 136 88 66 59 154 120 114 127 134 141 155 166 170 173 195 252 314 346
237 247 210 212 223 215 215 220 227 247 249 253 210 235 249 276 281 265 252 223 212 215 213 203 196 184 156 107 73 43 112 132 139 141 137 128 127 176 186 208 231 240 264 299
227 247 219 225 251 214 205 219 248 261 282 265 240 244 262 235 249 237 224 206 217 220 217 212 201 184 168 145 101 47 90 92 103 121 124 123 116 127 115 357 289 288 310 311
220 248 245 226 207 230 241 199 192 217 242 251 251 246 241 225 234 237 228 223 229 232 224 213 200 185 173 160 132 115 89 97 89 70 70 63 81 283 260 241 273 297 289 299
214 225 236 210 212 208 187 199 214 222 240 249 261 255 230 232 217 220 230 229 232 234 235 220 205 170 159 147 134 121 112 95 76 68 57 41 23 5 341 312 307 301 293 290
201 216 242 241 243 250 229 218 207 222 233 236 259 266 106 215 219 226 240 238 237 235 237 225 204 172 157 165 157 150 136 114 78 63 62 43 12 0 331 304 306 307 295 291
176 194 244 249 216 209 231 228 225 229 240 236 243 257 119 220 284 266 253 251 244 231 226 222 207 206 198 191 186 185 184 174 143 127 132 80 333 281 299 285 283 285 280 279
200 207 223 245 259 223 232 233 223 220 230 242 245 258 261 269 277 272 259 254 249 239 228 224 220 218 219 210 201 200 215 215 212 208 194 181 286 289 291 296 278 273 271 268
202 227 236 254 260 245 244 243 231 229 235 244 257 261 266 268 269 268 261 250 243 247 247 238 229 223 222 216 212 209 217 219 214 214 226 242 277 291 295 298 296 279 269 267
206 222 230 254 255 254 257 250 242 240 242 248 259 266 272 273 262 256 252 242 240 246 250 247 239 230 228 224 222 214 217 217 212 213 232 261 279 294 294 295 296 292 285 280
198 198 219 249 262 262 253 240 231 232 233 237 248 257 260 257 253 254 253 248 248 247 248 248 241 235 231 228 222 218 213 207 206 212 226 241 256 273 285 287 286 285 284 279
201 207 223 241 224 240 250 246 228 236 247 243 251 261 260 258 268 268 254 246 255 257 254 252 246 241 236 227 215 209 201 203 209 216 224 234 248 262 276 274 273 282 286 278
212 204 209 215 237 260 269 239 213 228 253 245 245 255 262 267 275 260 243 246 254 259 259 255 247 240 228 212 198 192 200 205 211 222 231 236 240 249 256 262 270 278 279 278
208 209 214 215 232 245 255 201 243 228 255 254 237 245 250 237 257 266 266 275 274 270 258 253 240 213 206 204 188 192 203 209 221 231 239 239 237 241 247 255 265 274 273 275
179 202 217 225 239 255 266 172 173 218 260 274 230 243 240 241 264 296 297 289 282 273 258 230 198 200 206 197 190 203 210 222 233 241 245 245 243 246 251 258 264 268 271 271
194 195 205 209 230 247 154 160 202 242 349 305 265 262 254 263 286 285 277 280 287 274 237 191 195 216 206 188 196 213 226 238 239 236 241 245 248 248 247 251 258 258 254 258
214 211 206 207 226 283 163 199 226 293 272 281 274 275 262 266 269 274 274 273 274 257 240 212 207 222 218 203 210 226 243 241 231 235 244 250 253 250 246 243 246 250 245 245
224 230 214 238 249 250 235 246 265 270 270 286 284 277 261 262 267 270 273 273 272 262 248 228 214 230 243 237 239 245 253 231 225 234 241 243 243 247 246 245 239 239 238 242
221 196 215 243 257 267 243 234 241 262 275 285 290 275 258 258 261 260 265 264 262 263 255 236 230 241 250 252 254 259 240 215 227 237 238 241 240 244 246 247 247 247 245 245
214 208 217 240 236 235 249 222 225 237 256 265 271 276 266 249 253 260 263 264 263 260 258 249 248 250 254 252 256 256 237 219 217 229 233 235 241 244 247 255 270 269 269 273